COSMOS 1275 DEB

Satellite information

Favourite Embed

Satellite Type and Status

DEBRISIN ORBIT

Key statistics

Satellite COSMOS 1275 DEB at a glance.

Uptime

16159

Days in orbit

Revolutions

≈ 14.0

Per day

Orbit

LEO

Low Earth Orbit

Inclination

82.9

Latest

Satellite identification and parameters

Extended collection of information and parameters for COSMOS 1275 DEB.

Object identification

Identified? True

Debris? True

Object name: COSMOS 1275 DEB

International designator: 1981-053EP

Object number (NORAD): 13017

Object ID (CCSDS): 13017

Country: COMMONWEALTH OF INDEPENDENT STATES (CIS)

Current information (Y/N): Y

RCS size: SMALL

Orbital parameters

Period: 102.845 minutes

Inclination: 82.9326 deg

SMA: 7271.348 km

Apoapsis: 916.87 km

Periapsis: 869.555 km

RAAN: 159.6178 deg

Eccentricy: 0.00325351

Argument of periapsis: 347.5408 deg

Mean anomaly: 191.9652 deg

Mean motion: 14.00168743 rev/day

Mean motion (dot): 0.00001449 rev/day2

B* drag term: 0.000967884 1/REarth

Two-line elements (TLE)

Creation date: Aug. 31, 2025, 2:26 a.m.

Reference frame: TEME

Reference center: EARTH

Epoch: Aug. 30, 2025, 12:11 p.m. UTC

TLE line 0: 0 COSMOS 1275 DEB

TLE line 1: 1 13017U 81053EP 25242.50789029 .00001449 00000-0 96788-3 0 9993

TLE line 2: 2 13017 82.9326 159.6178 0032535 347.5408 191.9652 14.00168743216253

Live tracking on map

Real-time ground track for satellite COSMOS 1275 DEB.

In-orbit conjunctions

A list of the most updated potential collisions computed for object COSMOS 1275 DEB.

Target Orbit TCA Probability of collision Miss distance Type
FENGYUN 1C DEB SSO 2025-08-21 15:54:12 0.0001111996 252.0 (m) DEBRIS
LANDSAT 2 SSO 2024-10-26 08:39:40 0.0002038195 147.0 (m) PAYLOAD
SL-14 DEB LEO 2024-06-26 00:34:45 0.0001116734 343.0 (m) DEBRIS

Associated space launch

Navigation satellite providing location information for the Tsiklon-B navigation system

COSMOS 1275 DEB was lifted into orbit during the mission ‘Kosmos-3M | Parus 27’, on board a Kosmos-3M space rocket.

The launch took place on June 4, 1981, 3:41 p.m. from 132/2.

For more information about the launch, click the button.

Launch to space Kosmos-3M | Parus 27
Kosmos-3M | Parus 27

Agency: N/A

Status: Launch Successful

Launch date: June 4, 1981, 3:41 p.m. UTC

Rocket: Kosmos-3M

Launch pad: 132/2

Location: Plesetsk Cosmodrome, Russian Federation

...

Latest news about this satellite

There are no fresh news available about this satellite. Check back as we update our databases every day.


Newsletter sign-up

Weekly statistics, charts and insights to help you stay on top of the space industry.